Location: *
(51.1248°S, 108.4023°W)
Time: 22:11:15
(UTC+00:00)

Cosmos 2278 Rocket - Pass Details

Date: 24 October 2021
Orbit: 841 x 845 km, 71.0° (Epoch: 30 November)

Event Time Altitude Azimuth Distance (km) Brightness Sun altitude
Exits shadow 08:14:14 24° 266° (W) 1,688 3.6 -24.8°
Maximum altitude 08:16:35 33° 225° (SW) 1,404 3.5 -24.7°
Drops below altitude 10° 08:21:45 10° 161° (SSE) 2,499 5.7 -24.4°
Sets 08:24:29 0° 151° (SSE) 3,439 6.8 -24.2°
